Regional Weather Roundup
Issued by NWS

Home | Current Version | Previous Version | Text Only | Print | Product List | Glossary On
Versions: 1 2 3 4 5 6 7 8 9 10 11 12 13 14 15 16 17 18 19 20 21 22 23 24 25 26 27 28 29 30 31 32 33 34 35 36 37 38 39 40 41 42 43 44 45 46 47 48 49 50
000
ASUS43 KTOP 161408
RWRKS

WEATHER ROUNDUP FOR KANSAS
NATIONAL WEATHER SERVICE GOODLAND KS
900 AM CDT WED AUG 16 2017

NOTE:  "FAIR" INDICATES FEW OR NO CLOUDS BELOW 12,000 FEET WITH NO
SIGNIFICANT WEATHER AND/OR OBSTRUCTIONS TO VISIBILITY.

KSZ001>006-013>018-027>032-041>047-161500-
NORTHWEST KANSAS

CITY           SKY/WX    TMP DP  RH WIND       PRES   REMARKS
GOODLAND       CLOUDY    62  60  93 NW6       30.00R
HAYS           CLOUDY    65  63  93 SW7       29.88R
HILL CITY      CLOUDY    65  63  93 W10       29.91R
RUSSELL        CLOUDY    65  63  93 SE9       29.82S
$$

KSZ061>065-074>080-084>089-161500-
SOUTHWEST KANSAS

CITY           SKY/WX    TMP DP  RH WIND       PRES   REMARKS
DODGE CITY     CLOUDY    68  62  81 NE7       29.91R
ELKHART          N/A     63  61  94 NW10        N/A
GARDEN CITY    MOSUNNY   67  60  78 NE7       29.93R
GREAT BEND     MOSUNNY   67  64  90 SE9       29.85F
LIBERAL        MOSUNNY   67  61  81 N17       29.93R
PRATT          MOSUNNY   69  63  80 E12       29.88R
$$

KSZ066>073-081>083-090>101-161500-
SOUTHEAST KANSAS

CITY           SKY/WX    TMP DP  RH WIND       PRES   REMARKS
CHANUTE        MOSUNNY   79  73  82 S16G23    29.86R
COFFEYVILLE    SUNNY     80  74  81 S13       29.87R
HUTCHINSON     MOSUNNY   69  65  86 VRB7      29.87S
MEDICINE LODGE   N/A     75  71  87 S5        29.84F
NEWTON         CLOUDY    64  63  96 NE8       29.90R
PARSONS        SUNNY     79  73  82 S10G17    29.88R
WICHITA INTL   LGT RAIN  68  67  96 NE15      29.89R
WICHITA JABRA  LGT RAIN  65  65 100 NE8G18    29.89F
WICHITA MCCONL LGT RAIN  68  64  88 N14       29.90R
WINFIELD       SUNNY     79  73  82 S10       29.87R
$$

KSZ007>012-019>026-033>040-048>060-102>105-161500-
NORTHEAST KANSAS

CITY           SKY/WX    TMP DP  RH WIND       PRES   REMARKS
CONCORDIA      PTSUNNY   65  65 100 E6        29.77F
EMPORIA        LGT RAIN  66  64  93 N9G18     29.89F
LAWRENCE       CLOUDY    75  73  93 SE10      29.84R
MANHATTAN      RAIN      67  64  90 CALM      29.84F FOG
MARYSVILLE     CLOUDY    64  64 100 E10       29.75F
OLATHE IND     CLOUDY    75  72  90 S14       29.86S
OLATHE EXE     CLOUDY    74  73  97 SE10      29.86S
SALINA         CLOUDY    69  65  86 SE8       29.81F
TOPEKA BILLARD LGT RAIN  74  72  93 NW18G28   29.86R
TOPEKA FORBES  HVY RAIN  74  72  93 W20G26    29.86R VSB 1
$$




USA.gov is the U.S. government's official web portal to all federal, state and local government web resources and services.